FW5156 Weather Reports


time (UTC)temp
C
wind
direction
speed
KPH
gust
KPH
rain 1hr
cm
rain 24hr
cm
rain mn
cm
humidity
%
barometer
mb
20260504000017 13 203 1.6 14.5 0.00 0.00 0.00 64 1011.4
20260503235017 13 293 3.2 22.5 0.00 0.00 0.00 63 1011.2
20260503234017 13 225 3.2 11.3 0.00 0.00 0.00 65 1011.4
20260503233017 13 225 1.6 11.3 0.00 0.00 0.00 65 1011.6
20260503232037 13 225 3.2 11.3 0.00 0.00 0.00 63 1012.0
20260503231037 13 225 1.6 9.7 0.00 0.00 0.00 63 1012.0
20260503230017 13 225 3.2 12.9 0.00 0.00 0.00 62 1011.6
20260503225017 14 225 4.8 17.7 0.00 0.00 0.00 60 1011.3
20260503224017 14 225 3.2 12.9 0.00 0.00 0.00 60 1011.8
20260503223018 14 203 3.2 16.1 0.00 0.00 0.00 59 1012.2
20260503222017 14 225 1.6 11.3 0.00 0.00 0.00 60 1012.4
20260503221018 15 225 3.2 14.5 0.00 0.00 0.00 59 1012.5
20260503220017 15 203 6.4 17.7 0.00 0.00 0.00 54 1012.2
20260503215015 15 225 3.2 16.1 0.00 0.00 0.00 55 1012.6
20260503214017 15 203 4.8 12.9 0.00 0.00 0.00 54 1013.0
20260503213017 15 248 6.4 17.7 0.00 0.00 0.00 50 1012.9
20260503212017 16 225 6.4 16.1 0.00 0.00 0.00 50 1012.6
20260503211017 16 203 8.0 22.5 0.00 0.00 0.00 50 1013.3
20260503210017 16 248 3.2 17.7 0.00 0.00 0.00 52 1013.3
20260503205017 16 203 6.4 20.9 0.00 0.00 0.00 51 1013.7
20260503204017 16 203 6.4 19.3 0.00 0.00 0.00 50 1014.3
20260503203017 16 225 4.8 19.3 0.00 0.00 0.00 49 1014.5
20260503202017 16 293 6.4 17.7 0.00 0.00 0.00 49 1014.9
20260503201017 16 270 4.8 16.1 0.00 0.00 0.00 49 1015.3
20260503200017 17 203 6.4 17.7 0.00 0.00 0.00 48 1015.2
20260503195037 16 225 1.6 11.3 0.00 0.00 0.00 46 1015.3
20260503194017 16 270 4.8 19.3 0.00 0.00 0.00 47 1015.6
20260503193018 16 203 3.2 11.3 0.00 0.00 0.00 47 1015.9
20260503192017 16 203 9.7 24.1 0.00 0.00 0.00 47 1016.1
20260503191037 16 203 8.0 20.9 0.00 0.00 0.00 45 1015.6
20260503190017 16 270 6.4 22.5 0.00 0.00 0.00 48 1015.8
20260503185017 16 248 6.4 20.9 0.00 0.00 0.00 50 1016.0
20260503184018 16 293 3.2 11.3 0.00 0.00 0.00 50 1016.0
20260503183017 16 225 6.4 22.5 0.00 0.00 0.00 45 1016.3
20260503182017 16 248 6.4 19.3 0.00 0.00 0.00 48 1016.6
20260503181037 16 203 4.8 17.7 0.00 0.00 0.00 46 1016.7
20260503180037 16 225 6.4 22.5 0.00 0.00 0.00 49 1017.2
20260503175017 15 248 6.4 17.7 0.00 0.00 0.00 46 1017.4
20260503174017 15 225 8.0 20.9 0.00 0.00 0.00 44 1017.5
20260503173017 15 225 8.0 22.5 0.00 0.00 0.00 48 1017.7
20260503172017 15 225 4.8 19.3 0.00 0.00 0.00 51 1017.9
20260503171017 15 225 3.2 17.7 0.00 0.00 0.00 49 1017.8
20260503131037 7 248 3.2 9.7 0.00 0.00 0.00 65 1019.6
20260503081017 4 0.0 3.2 0.00 0.00 0.00 71 1018.9
20260503072017 4 0.0 1.6 0.00 0.00 0.00 71 1018.8
20260503071017 4 0.0 0.0 0.00 0.00 0.00 71 1018.8
20260503055017 4 0.0 6.4 0.00 0.00 0.00 71 1019.2
20260503054018 4 0.0 0.0 0.00 0.00 0.00 71 1019.2
20260503053038 4 0.0 0.0 0.00 0.00 0.00 71 1019.3
20260503052017 4 0.0 0.0 0.00 0.00 0.00 71 1019.4
20260503051037 4 0.0 0.0 0.00 0.00 0.00 72 1019.5
20260503050017 4 0.0 0.0 0.00 0.00 0.00 73 1019.5
20260503045017 4 0.0 0.0 0.00 0.00 0.00 75 1019.4
20260503044038 4 0.0 0.0 0.00 0.00 0.00 77 1019.4
20260503043017 4 0.0 0.0 0.00 0.00 0.00 77 1019.5
20260503042018 4 0.0 0.0 0.00 0.00 0.00 76 1019.4
20260503041037 5 0.0 0.0 0.00 0.00 0.00 72 1019.2
20260503040017 5 0.0 0.0 0.00 0.00 0.00 72 1019.4
20260503035037 5 0.0 0.0 0.00 0.00 0.00 73 1019.3
20260503034037 5 0.0 0.0 0.00 0.00 0.00 68 1019.2
20260503033018 5 0.0 0.0 0.00 0.00 0.00 68 1019.4
20260503032017 5 0.0 0.0 0.00 0.00 0.00 67 1019.3
20260503031017 5 0.0 0.0 0.00 0.00 0.00 67 1019.3
20260503030017 5 0.0 0.0 0.00 0.00 0.00 66 1019.4
20260503025018 5 0.0 0.0 0.00 0.00 0.00 69 1019.4
20260503024017 5 0.0 0.0 0.00 0.00 0.00 69 1019.4
20260503023037 6 0.0 0.0 0.00 0.00 0.00 68 1019.3
20260503022017 6 0.0 0.0 0.00 0.00 0.00 65 1019.0
20260503021037 6 0.0 0.0 0.00 0.00 0.00 64 1019.0
20260503020017 6 0.0 0.0 0.00 0.00 0.00 65 1018.9
20260503015017 6 0.0 0.0 0.00 0.00 0.00 67 1018.7
20260503014017 6 0.0 0.0 0.00 0.00 0.00 65 1018.6
20260503013018 6 0.0 0.0 0.00 0.00 0.00 63 1018.4
20260503012017 7 0.0 0.0 0.00 0.00 0.00 61 1018.4
20260503011017 7 0.0 0.0 0.00 0.00 0.00 60 1018.3
20260503010017 7 0.0 0.0 0.00 0.00 0.00 58 1018.3
20260503005017 8 0.0 0.0 0.00 0.00 0.00 57 1018.3
20260503004038 8 0.0 0.0 0.00 0.00 0.00 56 1018.3
20260503003017 8 0.0 0.0 0.00 0.00 0.00 56 1018.4
20260503002037 9 0.0 0.0 0.00 0.00 0.00 51 1018.3
20260503001017 10 0.0 0.0 0.00 0.00 0.00 49 1018.2